+ View the NASA Portal
+ Center for Near-Earth Object Studies
IMPORTANT:
The SSD Announcement email list is now available. Major changes are coming in the near future, including possible hostname and/or URL changes. To be notified of such changes, subscribe to this email list.
Please visit
this page
for more details.
Don't show this message again
JPL Small-Body Database Browser
Search:
[
help
]
243429 (2009 CA63)
Classification:
Outer Main-belt Asteroid
SPK-ID:
2243429
[
Ephemeris
|
Orbit Diagram
|
Orbital Elements
|
Mission Design
|
Physical Parameters
|
Discovery Circumstances
|
Close-Approach Data
]
[ show orbit diagram ]
Orbital Elements at Epoch 2458600.5 (2019-Apr-27.0) TDB
Reference:
JPL 11
(heliocentric ecliptic J2000)
Element
Value
Uncertainty (1-sigma)
Units
e
.2355114531814695
5.9944e-08
a
3.22055057934879
5.6258e-08
au
q
2.462074032361933
2.0878e-07
au
i
14.72935428014465
1.3034e-05
deg
node
352.884025712872
2.7591e-05
deg
peri
278.8250066697678
4.008e-05
deg
M
192.0860741953111
2.3767e-05
deg
t
p
2459585.140801140542
(2022-Jan-05.64080114)
0.0001366
TDB
period
2111.026150522512
5.78
5.5315e-05
1.514e-07
d
yr
n
.1705331788101699
4.4685e-09
deg/d
Q
3.979027126335647
6.9508e-08
au
Orbit Determination Parameters
# obs. used (total)
146
data-arc span
6620 days (18.12 yr)
first obs. used
1999-09-30
last obs. used
2017-11-14
planetary ephem.
DE431
SB-pert. ephem.
SB431-N16
condition code
0
norm. resid. RMS
.61743
source
ORB
producer
Otto Matic
solution date
2018-Oct-04 09:32:51
Additional Information
Earth MOID
= 1.49937 au
Jupiter MOID
= 1.6425 au
T_jup
= 3.095
[ show covariance matrix ]
[
Ephemeris
|
Orbit Diagram
|
Orbital Elements
|
Mission Design
|
Physical Parameters
|
Discovery Circumstances
|
Close-Approach Data
]
Physical Parameter Table
Parameter
Symbol
Value
Units
Sigma
Reference
Notes
absolute magnitude
H
15.7
n/a
MPO391275
diameter
diameter
4.306
km
0.154
urn:nasa:pds:neowise_diameters_albedos::2.0[mainbelt] (http://adsabs.harvard.edu/abs/2011ApJ...741...68M)
geometric albedo
albedo
0.055
0.012
urn:nasa:pds:neowise_diameters_albedos::2.0[mainbelt] (http://adsabs.harvard.edu/abs/2011ApJ...741...68M)
243429 (2009 CA63)
Discovered 2009-Feb-04 by Mt. Lemmon Survey at Mount Lemmon
Reference:
20100626/Numbers.arc
Last Updated:
2010-06-28
[ show close-approach data ]
Alternate Designations
2009 CA63
= 2005 VN62
[
Ephemeris
|
Orbit Diagram
|
Orbital Elements
|
Mission Design
|
Physical Parameters
|
Discovery Circumstances
|
Close-Approach Data
]
2019-Dec-15 19:28 UT
(server date/time)
Site Manager:
Ryan S. Park
Webmaster
:
Alan B. Chamberlin